Plattsburgh, NY

3:25 AM EDT on August 27, 2016 (GMT -0400)
Plattsburgh International

Weather History for KPBG - January, 2013

Change the Weather History Date:

Tuesday, January 1, 2013

  Actual Average Record
Temperature  
Mean Temperature 17 °F 19 °F  
Max Temperature 34 °F 29 °F 58 °F (1966)
Min Temperature -1 °F 10 °F -13 °F (1981)
Degree Days  
Heating Degree Days 48 46  
Month to date heating degree days 48 46  
Since 1 July heating degree days 2707 2932  
Cooling Degree Days 0 0  
Month to date cooling degree days 0  
Year to date cooling degree days 0  
Moisture  
Dew Point 5 °F    
Average Humidity 68    
Maximum Humidity 87    
Minimum Humidity 49    
Precipitation  
Precipitation 0.02 in - 0.80 in (1961)
Month to date precipitation 0.02  
Year to date precipitation 0.02  
Sea Level Pressure  
Sea Level Pressure 29.90 in    
Wind  
Wind Speed 8 mph (NW)    
Max Wind Speed 23 mph    
Max Gust Speed 32 mph    
Visibility 10 miles    
Events      
T = Trace of Precipitation, MM = Missing Value Source: NWS Daily Summary

Daily Weather History Graph

Daily Weather History Graph

Search for Another Location

Airport or City:

Trip Planner

Search our weather history database for the weather conditions in past years. The results will help you decide how hot, cold, wet, or windy it might be!

Date:

Astronomy

Jan. 01, 2013 Rise Set
Actual Time 7:30 AM EST 4:24 PM EST
Civil Twilight 6:57 AM EST 4:57 PM EST
Nautical Twilight 6:20 AM EST 5:34 PM EST
Astronomical Twilight 5:45 AM EST 6:10 PM EST
Moon 9:04 PM EST (1/1) 9:31 AM EST (1/1)
Length of Visible Light 10h 00m
Length of Day
8h 53m
Waning Gibbous, 83% of the Moon is Illuminated
Jan 1
Waning Gibbous
Jan 4
Last Quarter
Jan 11
New
Jan 18
First Quarter
Jan 26
Full

Hourly Weather History & Observations

Time (EST) Temp. Windchill Dew Point Humidity Pressure Visibility Wind Dir Wind Speed Gust Speed Precip Events Conditions
1:53 AM 33.1 °F 27.7 °F 24.1 °F 70% 29.68 in 10.0 mi NW 5.8 mph 20.7 mph N/A   Overcast
2:53 AM 32.0 °F 22.1 °F 21.0 °F 64% 29.70 in 10.0 mi NW 13.8 mph 19.6 mph 0.00 in   Overcast
3:53 AM 26.1 °F 13.1 °F 18.0 °F 71% 29.75 in 9.0 mi NW 17.3 mph 25.3 mph 0.00 in   Overcast
4:53 AM 21.9 °F 7.3 °F 10.9 °F 63% 29.80 in 10.0 mi NW 18.4 mph 32.2 mph 0.02 in   Overcast
6:53 AM 18.0 °F 0.9 °F 6.1 °F 60% 29.88 in 10.0 mi NNW 21.9 mph - N/A   Overcast
7:53 AM 15.1 °F 5.2 °F 3.9 °F 61% 29.91 in 10.0 mi NNW 6.9 mph 21.9 mph N/A   Mostly Cloudy
9:53 AM 15.1 °F 1.8 °F 3.0 °F 59% 29.94 in 10.0 mi North 11.5 mph - N/A   Overcast
10:53 AM 16.0 °F 7.4 °F 3.9 °F 59% 29.93 in 10.0 mi NNW 5.8 mph - N/A   Overcast
11:24 AM 15.8 °F 10.2 °F 6.8 °F 68% 29.91 in 5.0 mi NNW 3.5 mph - N/A   Haze
11:50 AM 15.8 °F 7.2 °F 6.8 °F 68% 29.91 in 8.0 mi North 5.8 mph - 0.00 in   Overcast
11:53 AM 16.0 °F 7.4 °F 7.0 °F 68% 29.92 in 9.0 mi North 5.8 mph - 0.00 in   Overcast
12:53 PM 18.0 °F 5.4 °F 1.0 °F 48% 29.90 in 10.0 mi West 11.5 mph 20.7 mph 0.00 in   Mostly Cloudy
2:53 PM 17.1 °F 5.8 °F 1.0 °F 50% 29.91 in 10.0 mi West 9.2 mph - N/A   Clear
3:53 PM 15.1 °F 7.7 °F -0.0 °F 51% 29.91 in 10.0 mi NW 4.6 mph - N/A   Clear
4:53 PM 12.9 °F 6.9 °F -0.0 °F 56% 29.93 in 10.0 mi Variable 3.5 mph - N/A   Clear
5:53 PM 12.0 °F 1.5 °F -0.0 °F 59% 29.95 in 10.0 mi WNW 6.9 mph - N/A   Clear
6:53 PM 12.0 °F 4.1 °F -0.0 °F 59% 29.96 in 10.0 mi Variable 4.6 mph - N/A   Clear
7:53 PM 6.1 °F - -2.0 °F 69% 29.98 in 10.0 mi Calm Calm - N/A   Clear
8:53 PM 7.0 °F - -0.9 °F 70% 29.96 in 10.0 mi Calm Calm - N/A   Clear
9:53 PM 3.9 °F - -0.9 °F 80% 29.96 in 10.0 mi Calm Calm - N/A   Clear
10:53 PM 1.0 °F - -2.9 °F 83% 29.96 in 10.0 mi Calm Calm - N/A   Partly Cloudy
11:53 PM 9.0 °F 0.6 °F -0.0 °F 67% 29.96 in 10.0 mi West 4.6 mph - N/A   Partly Cloudy